TimePDT,TemperatureF,Dew PointF,Humidity,Sea Level PressureIn,VisibilityMPH,Wind Direction,Wind SpeedMPH,Gust SpeedMPH,PrecipitationIn,Events,Conditions,WindDirDegrees,DateUTC
12:56 AM,61.0,26.1,26,29.95,10.0,ESE,5.8,-,N/A,,Clear,110,2012-10-04 07:56:00
1:56 AM,62.1,25.0,24,29.94,10.0,ESE,4.6,-,N/A,,Clear,120,2012-10-04 08:56:00
2:56 AM,60.1,24.1,25,29.94,10.0,ESE,8.1,-,N/A,,Clear,120,2012-10-04 09:56:00
3:56 AM,57.9,23.0,26,29.94,10.0,SE,6.9,-,N/A,,Clear,130,2012-10-04 10:56:00
4:56 AM,57.9,23.0,26,29.96,10.0,ESE,4.6,-,N/A,,Clear,110,2012-10-04 11:56:00
6:56 AM,57.9,21.0,24,29.98,10.0,ESE,6.9,-,N/A,,Clear,120,2012-10-04 13:56:00
7:56 AM,57.0,19.9,24,29.99,10.0,SE,9.2,-,N/A,,Clear,130,2012-10-04 14:56:00
8:56 AM,60.1,23.0,24,29.99,10.0,SE,4.6,-,N/A,,Clear,140,2012-10-04 15:56:00
9:56 AM,64.0,28.0,26,29.99,10.0,Variable,3.5,-,N/A,,Clear,0,2012-10-04 16:56:00
10:56 AM,66.0,30.9,27,30.01,10.0,Calm,Calm,-,0.00,,Clear,0,2012-10-04 17:56:00
11:56 AM,66.9,28.0,23,30.02,10.0,Calm,Calm,-,N/A,,Clear,0,2012-10-04 18:56:00
12:56 PM,66.0,26.1,22,30.03,10.0,NNW,3.5,-,N/A,,Clear,340,2012-10-04 19:56:00
1:56 PM,66.9,24.1,20,30.01,10.0,NW,3.5,-,N/A,,Clear,320,2012-10-04 20:56:00
2:56 PM,66.9,24.1,20,30.01,10.0,Variable,3.5,-,N/A,,Clear,0,2012-10-04 21:56:00
3:56 PM,68.0,26.1,21,30.01,10.0,NNW,5.8,-,N/A,,Clear,330,2012-10-04 22:56:00
4:56 PM,66.9,27.0,22,30.01,10.0,Calm,Calm,-,N/A,,Clear,0,2012-10-04 23:56:00
5:56 PM,63.0,26.1,25,30.01,10.0,NNW,5.8,-,N/A,,Clear,340,2012-10-05 00:56:00
6:56 PM,60.1,24.1,25,30.02,10.0,NNW,10.4,18.4,N/A,,Clear,340,2012-10-05 01:56:00
7:56 PM,57.0,28.0,33,30.04,10.0,NNW,11.5,18.4,N/A,,Clear,340,2012-10-05 02:56:00
8:56 PM,55.0,28.0,35,30.04,10.0,NNW,12.7,-,N/A,,Clear,340,2012-10-05 03:56:00
9:56 PM,53.1,26.1,35,30.04,10.0,NNW,11.5,-,N/A,,Clear,330,2012-10-05 04:56:00
10:56 PM,54.0,27.0,35,30.04,10.0,North,6.9,-,N/A,,Clear,350,2012-10-05 05:56:00
11:56 PM,55.9,30.9,39,30.04,10.0,Calm,Calm,-,N/A,,Clear,0,2012-10-05 06:56:00